Change the Weather History Date:

Saturday, April 5, 2014

  Actual Average Record
Temperature  
Mean Temperature 42 °F -  
Max Temperature 52 °F 0 °F 69 °F (2005)
Min Temperature 34 °F - 19 °F (2002)
Degree Days  
Heating Degree Days 22    
Moisture  
Dew Point 35 °F    
Average Humidity 71    
Maximum Humidity 100    
Minimum Humidity 41    
Precipitation  
Precipitation 0.00 in - - ()
Sea Level Pressure  
Sea Level Pressure 29.91 in    
Wind  
Wind Speed 7 mph (WNW)    
Max Wind Speed 22 mph    
Max Gust Speed 31 mph    
Visibility 6 miles    
Events Fog    
Averages and records for this station are not official NWS values.
T = Trace of Precipitation, MM = Missing Value Source: NWS Daily Summary

Daily Weather History Graph

Daily Weather History Graph

Search for Another Location

Airport or City:

Trip Planner

Search our weather history database for the weather conditions in past years. The results will help you decide how hot, cold, wet, or windy it might be!

Date:

Astronomy

Apr. 05, 2014 Rise Set
Actual Time 6:45 AM EDT 7:35 PM EDT
Civil Twilight 6:17 AM EDT 8:03 PM EDT
Nautical Twilight 5:45 AM EDT 8:35 PM EDT
Astronomical Twilight 5:11 AM EDT 9:09 PM EDT
Moon 10:51 AM EDT (4/5) 12:43 AM EDT (4/5)
Length of Visible Light 13h 45m
Length of Day
12h 50m
Waxing Crescent, 34% of the Moon is Illuminated
Apr 5
Waxing Crescent
Apr 7
First Quarter
Apr 15
Full
Apr 22
Last Quarter
Apr 29
New

Hourly Weather History & Observations

Time (EDT) Temp. Windchill Dew Point Humidity Pressure Visibility Wind Dir Wind Speed Gust Speed Precip Events Conditions
12:16 AM 46.0 °F - 45.0 °F 96% 29.76 in 2.5 mi Calm Calm - N/A   Overcast
12:53 AM 46.0 °F 43.9 °F 45.0 °F 96% 29.75 in 2.0 mi East 4.6 mph - N/A   Overcast
1:21 AM 46.0 °F 44.8 °F 45.0 °F 96% 29.74 in 2.5 mi East 3.5 mph - N/A   Overcast
1:32 AM 46.0 °F 43.9 °F 45.0 °F 96% 29.75 in 1.8 mi North 4.6 mph - N/A   Overcast
1:38 AM 45.0 °F 43.5 °F 44.1 °F 97% 29.74 in 0.8 mi NE 3.5 mph - N/A   Overcast
1:53 AM 45.0 °F 42.6 °F 45.0 °F 100% 29.77 in 0.5 mi North 4.6 mph - N/A Fog Fog
2:53 AM 45.0 °F - 44.1 °F 97% 29.78 in 0.2 mi Calm Calm - N/A Fog Fog
3:53 AM 45.0 °F - 44.1 °F 97% 29.79 in 0.5 mi Calm Calm - N/A Fog Fog
4:53 AM 44.1 °F 39.5 °F 42.1 °F 93% 29.81 in 1.5 mi NW 8.1 mph - N/A   Mostly Cloudy
4:56 AM 44.1 °F 40.1 °F 42.1 °F 93% 29.80 in 2.5 mi NW 6.9 mph - N/A   Mostly Cloudy
5:00 AM 43.0 °F 39.5 °F 42.1 °F 97% 29.80 in 3.0 mi WNW 5.8 mph - N/A   Mostly Cloudy
5:08 AM 43.0 °F 38.8 °F 42.1 °F 97% 29.81 in 2.0 mi West 6.9 mph - N/A   Scattered Clouds
5:28 AM 43.0 °F 39.5 °F 41.0 °F 93% 29.82 in 3.0 mi WSW 5.8 mph - N/A   Partly Cloudy
5:53 AM 44.1 °F 39.5 °F 37.9 °F 79% 29.84 in 10.0 mi SW 8.1 mph - N/A   Mostly Cloudy
6:53 AM 45.0 °F 38.2 °F 30.9 °F 58% 29.87 in 10.0 mi West 15.0 mph 26.5 mph N/A   Scattered Clouds
7:53 AM 46.0 °F 39.6 °F 30.9 °F 56% 29.90 in 10.0 mi West 15.0 mph 21.9 mph N/A   Overcast
8:53 AM 46.9 °F - 32.0 °F 56% 29.92 in 10.0 mi WNW 15.0 mph - N/A   Overcast
9:53 AM 46.9 °F - 30.9 °F 54% 29.94 in 10.0 mi West 19.6 mph 27.6 mph N/A   Overcast
10:53 AM 48.9 °F - 28.9 °F 46% 29.96 in 10.0 mi WNW 21.9 mph 31.1 mph N/A   Scattered Clouds
11:53 AM 48.9 °F - 28.0 °F 44% 29.98 in 10.0 mi WNW 21.9 mph 29.9 mph N/A   Partly Cloudy
12:53 PM 50.0 °F - 28.0 °F 43% 29.99 in 10.0 mi West 16.1 mph 25.3 mph N/A   Mostly Cloudy
1:53 PM 50.0 °F - 28.0 °F 43% 30.00 in 10.0 mi WNW 18.4 mph 26.5 mph N/A   Overcast
2:53 PM 51.1 °F - 28.9 °F 43% 30.01 in 10.0 mi NW 19.6 mph 26.5 mph N/A   Mostly Cloudy
3:53 PM 51.1 °F - 28.0 °F 41% 30.02 in 10.0 mi NW 15.0 mph 25.3 mph N/A   Scattered Clouds
4:53 PM 50.0 °F - 28.0 °F 43% 30.04 in 10.0 mi WNW 16.1 mph 24.2 mph N/A   Scattered Clouds
5:53 PM 48.9 °F - 27.0 °F 43% 30.05 in 10.0 mi West 17.3 mph 24.2 mph N/A   Partly Cloudy
6:53 PM 46.9 °F - 27.0 °F 46% 30.07 in 10.0 mi NW 18.4 mph 25.3 mph N/A   Clear
8:53 PM 39.9 °F 32.9 °F 27.0 °F 60% 30.13 in 10.0 mi WNW 11.5 mph - N/A   Clear
9:53 PM 36.0 °F 30.3 °F 26.1 °F 67% 30.14 in 10.0 mi WNW 6.9 mph - N/A   Clear
10:53 PM 34.0 °F 29.8 °F 26.1 °F 73% 30.16 in 10.0 mi WNW 4.6 mph - N/A   Clear
11:53 PM 36.0 °F 31.1 °F 26.1 °F 67% 30.17 in 10.0 mi West 5.8 mph - N/A   Clear